Regional Weather Roundup
Issued by NWS Sioux Falls, SD

Home | Current Version | Previous Version | Graphics & Text | Print | Product List | Glossary On
Versions: 1 2 3 4 5 6 7 8 9 10 11 12 13 14 15 16 17 18 19 20 21 22 23 24 25 26 27 28 29 30 31 32 33 34 35 36 37 38 39 40 41 42 43 44 45 46 47 48 49 50
000
ASUS43 KFSD 301102
RWRFSD

WEATHER ROUNDUP FOR SE SOUTH DAKOTA/SW MINNESOTA/NW IOWA
NATIONAL WEATHER SERVICE SIOUX FALLS SD
600 AM CDT THU MAR 30 2017

NOTE: "FAIR" INDICATES FEW OR NO CLOUDS BELOW 12,000 FEET WITH NO
SIGNIFICANT WEATHER AND OR OBSTRUCTIONS TO VISIBILITY.


SDZ038>040-050-052>070-301200-
SOUTHEAST SOUTH DAKOTA

CITY           SKY/WX    TMP DP  RH WIND       PRES   REMARKS
BROOKINGS      CLOUDY    37  35  92 NE10      29.89F
CHAMBERLAIN    CLOUDY    40  38  95 NE6       29.88F
HURON          CLOUDY    38  36  92 E7        29.90F
MADISON        CLOUDY    36  36 100 NE13      29.89F
MITCHELL       CLOUDY    40  37  89 NE9       29.90F
SIOUX FALLS    CLOUDY    39  38  96 NE12      29.86F
WINNER         CLOUDY    39  36  89 NE5       29.87F
YANKTON        CLOUDY    39  36  87 N10       29.85F
$$

MNZ071-072-080-081-089-090-097-098-301200-
SOUTHWEST MINNESOTA

CITY           SKY/WX    TMP DP  RH WIND       PRES   REMARKS
FAIRMONT       CLOUDY    37  35  92 NE15      29.85F
JACKSON          N/A     36  36 100 NE18      29.85F FOG
MARSHALL       LGT RAIN  38  37  97 E13       29.92F FOG
MONTEVIDEO     DRIZZLE   37  37 100 E8        29.95F
PIPESTONE      CLOUDY    37  34  87 NE9       29.87F
REDWOOD FALLS  CLOUDY    39  36  89 NE8       29.91F
TRACY          CLOUDY    38  38  98 NE12G18   29.90F
WINDOM         MOCLDY    37  36  93 NE17      29.86F
WORTHINGTON    CLOUDY    36  35  96 NE16      29.84F
$$

IAZ001>003-012>014-020>022-031-032-NEZ013-014-SDZ071-301200-
NORTHWEST IOWA

CITY           SKY/WX    TMP DP  RH WIND       PRES   REMARKS
CHEROKEE       CLOUDY    38  38 100 NE9G17    29.79S FOG
DENISON        CLOUDY    39  39 100 NE16      29.74R FOG
ESTHERVILLE    CLOUDY    36  36 100 NE20      29.82F
LE MARS        CLOUDY    39  37  93 NE18      29.82F
ORANGE CITY    CLOUDY    37  37 100 NE10      29.81F
SHELDON        CLOUDY    37  36  93 NE18G24   29.81F
SIOUX CITY     CLOUDY    39  38  96 NE12      29.79F
SPENCER        CLOUDY    37  36  96 NE21      29.82S
STORM LAKE     CLOUDY    37  37 100 NE24      29.76F FOG
$$

ABBREVIATIONS USED IN REMARKS
   TC - TEMPERATURE IN CELSIUS
  WCI - WIND CHILL INDEX
   HX - HEAT INDEX
  VSB - VISIBILITY





USA.gov is the U.S. government's official web portal to all federal, state and local government web resources and services.